Home   Weather   Glendale   Past weeks

Flag for USA Past Weather in Glendale, Arizona, USA — Yesterday and Last 2 Weeks

Now
54 °F

Light rain. Overcast.


Feels Like: 53 °F
Forecast: 50 / 66 °F
Wind: 6 mph from Northeast

Location: Phoenix-Deer Valley Municipal Airport

Current Time: Feb 19, 2017 at 11:39:52 pm

Latest Report: Feb 19, 2017 at 10:53 pm


Visibility: 10 mi

Pressure: 30.07 "Hg

Humidity: 97%

Dew Point: 53 °F

Location of GlendaleLocation

Past Weather in Glendale — Graph

°F

Glendale Temperature Yesterday

Maximum temperature yesterday: 65 °F (at 12:53 am)
Minimum temperature yesterday: 49 °F (at 10:38 pm)
Average temperature yesterday: 56 °F

High & Low Weather Summary for the Past Weeks

 TemperatureHumidityPressure
High80 °F (Feb 9, 4:53 pm)100% (Feb 18, 7:53 pm)30.12 "Hg (Feb 18, 7:53 pm)
Low49 °F (Feb 5, 6:53 am)17% (Feb 5, 2:53 pm)29.50 "Hg (Feb 18, 1:53 pm)
Average62 °F55%29.92 "Hg
* Reported Feb 4 9:53 pm — Feb 19 9:53 pm, Glendale, Weather by CustomWeather, © 2017

Note: Actual official high and low records may vary slightly from our data, if they occured in-between our weather recording intervals... More about our weather records

Advertising

Glendale Weather History for the Previous 24 Hours

Scroll right to see more
 ConditionsComfort  
Time TempWeatherWind HumidityBarometerVisibility
9:53 pm
Sun, Feb 19
54 °FRain. Fog.7 mph90%30.05 "Hg4 mi
9:37 pm54 °FMostly cloudy.5 mph90%30.07 "Hg10 mi
8:53 pm54 °FPassing clouds.7 mph90%30.03 "Hg10 mi
7:53 pm53 °FClear.5 mph96%29.99 "Hg10 mi
6:53 pm54 °FClear.5 mph93%29.97 "Hg10 mi
5:53 pm56 °FOvercast.5 mph84%29.95 "Hg10 mi
4:53 pm56 °FPartly sunny.7 mph87%29.92 "Hg10 mi
3:53 pm56 °FBroken clouds.5 mph81%29.92 "Hg10 mi
3:11 pm55 °FLight rain. Cloudy.No wind83%29.94 "Hg8 mi
2:53 pm55 °FCloudy.No wind83%29.91 "Hg10 mi
2:39 pm55 °FMore clouds than sun.No wind87%29.93 "Hg10 mi
2:05 pm54 °FMostly cloudy.3 mph93%29.93 "Hg10 mi
1:08 pm54 °FCloudy.6 mph90%29.93 "Hg10 mi
12:20 pm53 °FMostly cloudy.7 mph89%29.94 "Hg10 mi
11:53 am52 °FMostly cloudy.8 mph97%29.91 "Hg10 mi
11:29 am52 °FMostly cloudy.8 mph97%29.94 "Hg10 mi
10:53 am51 °FFog.8 mph100%29.91 "Hg4 mi
10:31 am51 °FMore clouds than sun.8 mph100%29.93 "Hg9 mi
10:11 am50 °FLight rain. Fog.9 mph100%29.92 "Hg4 mi
9:53 am50 °FMostly cloudy.9 mph100%29.89 "Hg10 mi
9:14 am50 °FLight rain. Fog.9 mph100%29.90 "Hg3 mi
8:40 am49 °FLight rain. Fog.9 mph100%29.89 "Hg4 mi
8:00 am49 °FLight rain. Fog.10 mph100%29.87 "Hg6 mi
7:10 am49 °FLight rain. Low clouds.12 mph100%29.84 "Hg10 mi
6:38 am49 °FLight rain. Fog.8 mph100%29.83 "Hg6 mi
5:53 am49 °FOvercast.8 mph100%29.79 "Hg9 mi
5:32 am49 °FLight rain. Overcast.8 mph100%29.81 "Hg8 mi
4:53 am49 °FLight rain. Overcast.10 mph100%29.77 "Hg10 mi
3:53 am49 °FLight rain. Fog.7 mph100%29.76 "Hg3 mi
3:43 am49 °FLight rain. Fog.7 mph100%29.79 "Hg2 mi
2:53 am49 °FLight rain. Mostly cloudy.7 mph100%29.75 "Hg9 mi
2:30 am49 °FLight rain. Fog.8 mph97%29.77 "Hg5 mi
1:53 am49 °FLight rain. Mostly cloudy.10 mph100%29.74 "Hg10 mi
1:28 am49 °FLight rain. Fog.9 mph100%29.77 "Hg6 mi
12:53 am49 °FOvercast.9 mph100%29.74 "Hg10 mi
12:19 am49 °FLight rain. Fog.10 mph97%29.77 "Hg6 mi
11:53 pm
Sat, Feb 18
49 °FLight rain. Fog.10 mph100%29.73 "Hg6 mi
Weather by CustomWeather, © 2017

See weather overviewHow to use our weather pages